Starlink 34514

operational
NORAD ID: 64416 Int'l Des: 2025-129 Owner: SPXS Country: US Constellation: starlink
LEOCIRCULAR

Starlink 34514について

説明を読み込み中...

リアルタイム位置

3D地球を読み込み中...

次回通過

高度履歴

Altitude vs Time

uPlot chart will show altitude changes over time

軌道要素

1 64416U 25129E 25342.31282734 .00001329 00000-0 11912-3 0 9998
2 64416 70.0021 304.7031 0003050 272.1710 87.9100 14.98339477 27604
Epoch: Dec 8, 2025 • Age: 18 hours

現在のステータス

高度 574.1 km
速度 7.57 km/s
衛星直下点 5.90°N, 13.98°E
打ち上げ日 Jun 17, 2025
運用期間 0.4 years
タイプ internet

技術仕様

分類 Payload
質量 575.00 kg
乾燥質量 530.00 kg
総質量 575.00 kg
長さ 0.30 m
直径 4.10 m
スパン 29.00 m
形状 Box + pan
製造者 SPXS
バスタイプ Starlink V2MO
フェーズステータス In Orbit
所有者/国 SPXS/US

大規模コンステレーション

Loading constellations...